Time,TemperatureF,DewpointF,PressureIn,WindDirection,WindDirectionDegrees,WindSpeedMPH,WindSpeedGustMPH,Humidity,HourlyPrecipIn,Conditions,Clouds,dailyrainin,SolarRadiationWatts/m^2,SoftwareType,DateUTC
2013-01-24 00:02:00,31.0,31.0,-100.00,SSE,168,0.0,7.0,100,0.00,,,0.00,0.000000,,2013-01-24 08:02:00,
2013-01-24 00:12:00,31.0,31.0,-100.00,SSE,168,0.0,7.0,100,0.00,,,0.00,0.000000,,2013-01-24 08:12:00,
2013-01-24 00:43:00,31.0,31.0,-100.00,East,85,0.0,6.0,100,0.00,,,0.00,0.000000,,2013-01-24 08:43:00,
2013-01-24 00:53:00,31.0,31.0,-100.00,East,85,0.0,6.0,100,0.00,,,0.00,0.000000,,2013-01-24 08:53:00,
2013-01-24 01:02:00,31.0,31.0,-100.00,East,85,0.0,6.0,100,0.00,,,0.00,0.000000,,2013-01-24 09:02:00,
2013-01-24 01:12:00,31.0,31.0,-100.00,East,85,0.0,6.0,100,0.00,,,0.00,0.000000,,2013-01-24 09:12:00,
2013-01-24 01:43:00,30.0,30.0,-100.00,East,99,0.0,5.0,100,0.00,,,0.00,0.000000,,2013-01-24 09:43:00,
2013-01-24 01:53:00,30.0,30.0,-100.00,East,99,0.0,5.0,100,0.00,,,0.00,0.000000,,2013-01-24 09:53:00,
2013-01-24 02:02:00,30.0,30.0,-100.00,East,99,0.0,5.0,100,0.00,,,0.00,0.000000,,2013-01-24 10:02:00,
2013-01-24 02:12:00,30.0,30.0,-100.00,East,99,0.0,5.0,100,0.00,,,0.00,0.000000,,2013-01-24 10:12:00,
2013-01-24 02:43:00,30.0,30.0,-100.00,NNE,15,0.0,5.0,100,0.00,,,0.00,0.000000,,2013-01-24 10:43:00,
2013-01-24 02:53:00,30.0,30.0,-100.00,NNE,15,0.0,5.0,100,0.00,,,0.00,0.000000,,2013-01-24 10:53:00,
2013-01-24 03:02:00,30.0,30.0,-100.00,NNE,15,0.0,5.0,100,0.00,,,0.00,0.000000,,2013-01-24 11:02:00,
2013-01-24 03:12:00,30.0,30.0,-100.00,NNE,15,0.0,5.0,100,0.00,,,0.00,0.000000,,2013-01-24 11:12:00,
2013-01-24 03:43:00,30.0,30.0,-100.00,East,79,0.0,5.0,100,0.00,,,0.00,0.000000,,2013-01-24 11:43:00,
2013-01-24 03:53:00,30.0,30.0,-100.00,East,79,0.0,5.0,100,0.00,,,0.00,0.000000,,2013-01-24 11:53:00,
2013-01-24 04:03:00,30.0,30.0,-100.00,East,79,0.0,5.0,100,0.00,,,0.00,0.000000,,2013-01-24 12:03:00,
2013-01-24 04:12:00,30.0,30.0,-100.00,East,79,0.0,5.0,100,0.00,,,0.00,0.000000,,2013-01-24 12:12:00,
2013-01-24 04:43:00,28.0,28.0,-100.00,ENE,72,0.0,3.0,100,0.00,,,0.00,0.000000,,2013-01-24 12:43:00,
2013-01-24 04:53:00,28.0,28.0,-100.00,ENE,72,0.0,3.0,100,0.00,,,0.00,0.000000,,2013-01-24 12:53:00,
2013-01-24 05:02:00,28.0,28.0,-100.00,ENE,72,0.0,3.0,100,0.00,,,0.00,0.000000,,2013-01-24 13:02:00,
2013-01-24 05:12:00,28.0,28.0,-100.00,ENE,72,0.0,3.0,100,0.00,,,0.00,0.000000,,2013-01-24 13:12:00,
2013-01-24 05:43:00,29.0,29.0,-100.00,SE,126,0.0,0.0,100,0.00,,,0.00,0.000000,,2013-01-24 13:43:00,
2013-01-24 05:53:00,29.0,29.0,-100.00,SE,126,0.0,0.0,100,0.00,,,0.00,0.000000,,2013-01-24 13:53:00,
2013-01-24 06:02:00,29.0,29.0,-100.00,SE,126,0.0,0.0,100,0.00,,,0.00,0.000000,,2013-01-24 14:02:00,
2013-01-24 06:12:00,29.0,29.0,-100.00,SE,126,0.0,0.0,100,0.00,,,0.00,0.000000,,2013-01-24 14:12:00,
2013-01-24 06:43:00,28.0,28.0,-100.00,NE,55,0.0,6.0,100,0.00,,,0.00,0.000000,,2013-01-24 14:43:00,
2013-01-24 06:54:00,28.0,28.0,-100.00,NE,55,0.0,6.0,100,0.00,,,0.00,0.000000,,2013-01-24 14:54:00,
2013-01-24 07:03:00,28.0,28.0,-100.00,NE,55,0.0,6.0,100,0.00,,,0.00,0.000000,,2013-01-24 15:03:00,
2013-01-24 07:12:00,28.0,28.0,-100.00,NE,55,0.0,6.0,100,0.00,,,0.00,0.000000,,2013-01-24 15:12:00,
2013-01-24 07:43:00,29.0,29.0,-100.00,SW,236,0.0,3.0,100,0.00,,,0.00,0.000000,,2013-01-24 15:43:00,
2013-01-24 07:53:00,29.0,29.0,-100.00,SW,236,0.0,3.0,100,0.00,,,0.00,0.000000,,2013-01-24 15:53:00,
2013-01-24 08:03:00,29.0,29.0,-100.00,SW,236,0.0,3.0,100,0.00,,,0.00,0.000000,,2013-01-24 16:03:00,
2013-01-24 08:12:00,29.0,29.0,-100.00,SW,236,0.0,3.0,100,0.00,,,0.00,0.000000,,2013-01-24 16:12:00,
2013-01-24 08:33:00,30.0,30.0,-100.00,SSE,149,0.0,0.0,100,0.00,,,0.00,50.000000,,2013-01-24 16:33:00,
2013-01-24 08:43:00,30.0,30.0,-100.00,SSE,149,0.0,0.0,100,0.00,,,0.00,50.000000,,2013-01-24 16:43:00,
2013-01-24 09:02:00,30.0,30.0,-100.00,SSE,149,0.0,0.0,100,0.00,,,0.00,50.000000,,2013-01-24 17:02:00,
2013-01-24 09:11:00,30.0,30.0,-100.00,SSE,149,0.0,0.0,100,0.00,,,0.00,50.000000,,2013-01-24 17:11:00,
2013-01-24 09:42:00,33.0,33.0,-100.00,NNE,18,0.0,2.0,100,0.00,,,0.00,201.000000,,2013-01-24 17:42:00,
2013-01-24 09:52:00,33.0,33.0,-100.00,NNE,18,0.0,2.0,100,0.00,,,0.00,201.000000,,2013-01-24 17:52:00,
2013-01-24 10:02:00,33.0,33.0,-100.00,NNE,18,0.0,2.0,100,0.00,,,0.00,201.000000,,2013-01-24 18:02:00,
2013-01-24 10:11:00,33.0,33.0,-100.00,NNE,18,0.0,2.0,100,0.00,,,0.00,201.000000,,2013-01-24 18:11:00,
2013-01-24 10:43:00,41.0,39.0,-100.00,North,11,0.0,3.0,94,0.00,,,0.00,332.000000,,2013-01-24 18:43:00,
2013-01-24 11:42:00,42.0,36.0,-100.00,NNE,20,3.0,5.0,80,-99.99,,,-99.99,411.000000,,2013-01-24 19:42:00,
2013-01-24 12:11:00,42.0,36.0,-100.00,NNE,20,3.0,5.0,80,-99.99,,,-99.99,411.000000,,2013-01-24 20:11:00,
2013-01-24 13:43:00,43.0,37.0,-100.00,NW,316,0.0,7.0,79,-99.99,,,0.04,402.000000,,2013-01-24 21:43:00,
2013-01-24 13:53:00,43.0,37.0,-100.00,NW,316,0.0,7.0,79,-99.99,,,0.04,402.000000,,2013-01-24 21:53:00,
2013-01-24 14:02:00,43.0,37.0,-100.00,NW,316,0.0,7.0,79,-99.99,,,0.04,402.000000,,2013-01-24 22:02:00,
2013-01-24 14:12:00,43.0,37.0,-100.00,NW,316,0.0,7.0,79,-99.99,,,0.04,402.000000,,2013-01-24 22:12:00,
2013-01-24 14:42:00,42.0,37.0,-100.00,NNW,328,0.0,4.0,81,0.02,,,0.06,258.000000,,2013-01-24 22:42:00,
2013-01-24 14:53:00,42.0,37.0,-100.00,NNW,328,0.0,4.0,81,0.02,,,0.06,258.000000,,2013-01-24 22:53:00,
2013-01-24 15:02:00,42.0,37.0,-100.00,NNW,328,0.0,4.0,81,0.02,,,0.06,258.000000,,2013-01-24 23:02:00,
2013-01-24 15:11:00,42.0,37.0,-100.00,NNW,328,0.0,4.0,81,0.02,,,0.06,258.000000,,2013-01-24 23:11:00,
2013-01-24 15:42:00,40.0,38.0,-100.00,North,3,0.0,5.0,91,0.01,,,0.07,155.000000,,2013-01-24 23:42:00,
2013-01-24 15:52:00,40.0,38.0,-100.00,North,3,0.0,5.0,91,0.01,,,0.07,155.000000,,2013-01-24 23:52:00,
2013-01-24 16:02:00,40.0,38.0,-100.00,North,3,0.0,5.0,91,0.01,,,0.07,155.000000,,2013-01-25 00:02:00,
2013-01-24 16:12:00,40.0,38.0,-100.00,North,3,0.0,5.0,91,0.01,,,0.07,155.000000,,2013-01-25 00:12:00,
2013-01-24 16:32:00,37.0,37.0,-100.00,NE,45,0.0,3.0,100,0.01,,,0.08,66.000000,,2013-01-25 00:32:00,
2013-01-24 16:42:00,37.0,37.0,-100.00,NE,45,0.0,3.0,100,0.01,,,0.08,66.000000,,2013-01-25 00:42:00,
2013-01-24 16:52:00,37.0,37.0,-100.00,NE,45,0.0,3.0,100,0.01,,,0.08,66.000000,,2013-01-25 00:52:00,
2013-01-24 17:01:00,37.0,37.0,-100.00,NE,45,0.0,3.0,100,0.01,,,0.08,66.000000,,2013-01-25 01:01:00,
2013-01-24 17:11:00,37.0,37.0,-100.00,NE,45,0.0,3.0,100,0.01,,,0.08,66.000000,,2013-01-25 01:11:00,
2013-01-24 17:32:00,38.0,38.0,-100.00,NNE,13,0.0,5.0,100,0.00,,,0.08,1.000000,,2013-01-25 01:32:00,
2013-01-24 17:42:00,38.0,38.0,-100.00,NNE,13,0.0,5.0,100,0.00,,,0.08,1.000000,,2013-01-25 01:42:00,
2013-01-24 17:52:00,38.0,38.0,-100.00,NNE,13,0.0,5.0,100,0.00,,,0.08,1.000000,,2013-01-25 01:52:00,
2013-01-24 18:02:00,38.0,38.0,-100.00,NNE,13,0.0,5.0,100,0.00,,,0.08,1.000000,,2013-01-25 02:02:00,
2013-01-24 18:11:00,38.0,38.0,-100.00,NNE,13,0.0,5.0,100,0.00,,,0.08,1.000000,,2013-01-25 02:11:00,
2013-01-24 18:43:00,38.0,38.0,-100.00,NNE,14,0.0,3.0,100,0.00,,,0.08,0.000000,,2013-01-25 02:43:00,
2013-01-24 18:52:00,38.0,38.0,-100.00,NNE,14,0.0,3.0,100,0.00,,,0.08,0.000000,,2013-01-25 02:52:00,
2013-01-24 19:02:00,38.0,38.0,-100.00,NNE,14,0.0,3.0,100,0.00,,,0.08,0.000000,,2013-01-25 03:02:00,
2013-01-24 19:12:00,38.0,38.0,-100.00,NNE,14,0.0,3.0,100,0.00,,,0.08,0.000000,,2013-01-25 03:12:00,
2013-01-24 19:42:00,34.0,34.0,-100.00,NE,53,0.0,0.0,100,0.00,,,0.08,0.000000,,2013-01-25 03:42:00,
2013-01-24 19:52:00,34.0,34.0,-100.00,NE,53,0.0,0.0,100,0.00,,,0.08,0.000000,,2013-01-25 03:52:00,
2013-01-24 20:02:00,34.0,34.0,-100.00,NE,53,0.0,0.0,100,0.00,,,0.08,0.000000,,2013-01-25 04:02:00,
2013-01-24 20:11:00,34.0,34.0,-100.00,NE,53,0.0,0.0,100,0.00,,,0.08,0.000000,,2013-01-25 04:11:00,
2013-01-24 20:32:00,37.0,37.0,-100.00,NNE,28,0.0,2.0,100,0.01,,,0.09,0.000000,,2013-01-25 04:32:00,
2013-01-24 20:42:00,37.0,37.0,-100.00,NNE,28,0.0,2.0,100,0.01,,,0.09,0.000000,,2013-01-25 04:42:00,
2013-01-24 20:51:00,37.0,37.0,-100.00,NNE,28,0.0,2.0,100,0.01,,,0.09,0.000000,,2013-01-25 04:51:00,
2013-01-24 21:03:00,37.0,37.0,-100.00,NNE,28,0.0,2.0,100,0.01,,,0.09,0.000000,,2013-01-25 05:03:00,
2013-01-24 21:12:00,37.0,37.0,-100.00,NNE,28,0.0,2.0,100,0.01,,,0.09,0.000000,,2013-01-25 05:12:00,
2013-01-24 21:32:00,39.0,39.0,-100.00,North,349,1.0,8.0,100,0.02,,,0.11,0.000000,,2013-01-25 05:32:00,
2013-01-24 21:43:00,39.0,39.0,-100.00,North,349,1.0,8.0,100,0.02,,,0.11,0.000000,,2013-01-25 05:43:00,
2013-01-24 21:52:00,39.0,39.0,-100.00,North,349,1.0,8.0,100,0.02,,,0.11,0.000000,,2013-01-25 05:52:00,
2013-01-24 22:02:00,39.0,39.0,-100.00,North,349,1.0,8.0,100,0.02,,,0.11,0.000000,,2013-01-25 06:02:00,
2013-01-24 22:11:00,39.0,39.0,-100.00,North,349,1.0,8.0,100,0.02,,,0.11,0.000000,,2013-01-25 06:11:00,
2013-01-24 22:42:00,39.0,39.0,-100.00,NE,41,1.0,11.0,100,0.02,,,0.13,0.000000,,2013-01-25 06:42:00,
2013-01-24 22:52:00,39.0,39.0,-100.00,NE,41,1.0,11.0,100,0.02,,,0.13,0.000000,,2013-01-25 06:52:00,
2013-01-24 23:01:00,39.0,39.0,-100.00,NE,41,1.0,11.0,100,0.02,,,0.13,0.000000,,2013-01-25 07:01:00,
2013-01-24 23:11:00,39.0,39.0,-100.00,NE,41,1.0,11.0,100,0.02,,,0.13,0.000000,,2013-01-25 07:11:00,
2013-01-24 23:32:00,38.0,38.0,-100.00,NE,36,3.0,10.0,100,0.01,,,0.14,0.000000,,2013-01-25 07:32:00,
2013-01-24 23:42:00,38.0,38.0,-100.00,NE,36,3.0,10.0,100,0.01,,,0.14,0.000000,,2013-01-25 07:42:00,
2013-01-24 23:52:00,38.0,38.0,-100.00,NE,36,3.0,10.0,100,0.01,,,0.14,0.000000,,2013-01-25 07:52:00,